This is the latest recevied weather packets stored in our database for station/object WW4HG. If no packets are shown the sender has not sent any weather packets the latest 10 day(s).
| Time | Temp. | Humidity | Pressure | Rain* | Wind** | Luminosity | Snow |
|---|---|---|---|---|---|---|---|
| 1778176644 | 21.67° C | 63% | 1011.2 hPa | 0 mm | - | 76 W/m² | - |
| 1778176336 | 21.67° C | 62% | 1011.2 hPa | 0 mm | - | 67 W/m² | - |
| 1778176034 | 21.67° C | 60% | 1011.2 hPa | 0 mm | - | 62 W/m² | - |
| 1778175732 | 21.67° C | 61% | 1010.6 hPa | 0 mm | - | 81 W/m² | - |
| 1778175429 | 22.22° C | 61% | 1011.2 hPa | 0 mm | - | 126 W/m² | - |
| 1778175126 | 22.22° C | 59% | 1010.9 hPa | 1.78 mm | - | 146 W/m² | - |
| 1778174822 | 22.22° C | 57% | 1011.2 hPa | 1.78 mm | - | 73 W/m² | - |
| 1778174519 | 22.22° C | 56% | 1010.9 hPa | 0 mm | - | 71 W/m² | - |
| 1778174219 | 22.22° C | 56% | 1010.9 hPa | 0 mm | - | 103 W/m² | - |
| 1778173916 | 22.22° C | 56% | 1011.2 hPa | 0 mm | - | 77 W/m² | - |
| 1778173613 | 21.67° C | 57% | 1010.9 hPa | 0 mm | - | 145 W/m² | - |
| 1778173311 | 21.67° C | 58% | 1011.2 hPa | 0 mm | - | 148 W/m² | - |
| 1778173006 | 21.11° C | 58% | 1011.2 hPa | 0 mm | - | 142 W/m² | - |
| 1778172703 | 21.11° C | 58% | 1011.2 hPa | 0 mm | - | 142 W/m² | - |
| 1778172398 | 20.56° C | 59% | 1011.6 hPa | 0 mm | - | 135 W/m² | - |
| 1778172095 | 20.56° C | 60% | 1011.2 hPa | 0 mm | - | 83 W/m² | - |
| 1778171787 | 20° C | 60% | 1010.9 hPa | 0 mm | - | 120 W/m² | - |
| 1778171485 | 20° C | 60% | 1010.2 hPa | 0 mm | - | 113 W/m² | - |
| 1778171180 | 19.44° C | 60% | 1009.9 hPa | 0 mm | - | 90 W/m² | - |
| 1778170877 | 19.44° C | 62% | 1009.9 hPa | 0 mm | - | 76 W/m² | - |
| 1778170573 | 19.44° C | 62% | 1010.6 hPa | 0 mm | - | 50 W/m² | - |
| 1778170270 | 19.44° C | 63% | 1010.2 hPa | 0 mm | - | 52 W/m² | - |
| 1778169967 | 19.44° C | 63% | 1011.2 hPa | 0 mm | - | 60 W/m² | - |
| 1778169663 | 19.44° C | 63% | 1011.2 hPa | 0 mm | - | 51 W/m² | - |
| 1778169358 | 20° C | 62% | 1010.9 hPa | 0 mm | - | 55 W/m² | - |
* Rain latest hour (hover to see other rain measurements)
** Current wind speed in m/s (hover to see current wind gust speed)